x

St. Clair Shores, Mi (clsm4) Weather Station

3:50am - Mon 20th Oct 2014 All times are CDT. -5 hours from GMT.

  • Wind
    10mph, 20mph gusts
  • Air Temp 51°f
  • Sea Pressure 1012.5mb
  • St. Clair Shores, Mi
  • St. Clair Shores, Mi

More Historic Weather Station data

Upgrade to MSW Pro to gain access to the past 30 days of data for over 8000 Wavebouys and Weather Stations around the globe.

Join Pro

Comparision Forecast

View Surf forecast
   
Mon 10/20 3:50am 10 20 mph 1012.5mb 51f
3:40am 11 16 mph 1012.9mb 51f
3:30am 9 15 mph 1013.2mb 51f
3:20am 8 13 mph 1013.2mb 51f
3:10am 8 14 mph 1013.2mb 51f
3:00am 8 13 mph 1013.2mb 51f
2:50am 8 15 mph 1013.2mb 51f
2:40am 9 15 mph 1013.5mb 51f
2:30am 10 14 mph 1013.5mb 51f
2:20am 9 14 mph 1013.5mb 51f
2:10am 8 13 mph 1013.9mb 51f
2:00am 7 11 mph 1013.9mb 51f
1:50am 9 16 mph 1014.2mb 51f
1:40am 8 14 mph 1014.2mb 51f
1:30am 7 13 mph 1014.2mb 51f
1:20am 8 13 mph 1014.6mb 51f
1:10am 7 15 mph 1014.6mb 51f
1:00am 8 15 mph 1014.9mb 51f
12:50am 9 14 mph 1015.2mb 51f
12:40am 8 13 mph 1015.2mb 51f
12:30am 9 14 mph 1015.2mb 51f
12:20am 7 13 mph 1015.2mb 51f
12:10am 6 11 mph 1015.2mb 50f
12:00am 5 8 mph 1015.2mb 50f
Sun 10/19 11:00pm 7 13 mph 1015.6mb 51f
10:00pm 5 9 mph 1015.6mb 50f
9:50pm 6 9 mph 1015.9mb 50f
9:40pm 6 11 mph 1015.9mb 50f
9:30pm 7 10 mph 1015.9mb 50f
9:20pm 7 11 mph 1015.9mb 50f
9:10pm 6 11 mph 1015.9mb 50f
9:00pm 7 14 mph 1016.3mb 49f
8:50pm 6 11 mph 1016.3mb 49f
8:40pm 6 11 mph 1016.3mb 49f
8:30pm 8 13 mph 1016.3mb 49f
8:20pm 9 11 mph 1016.6mb 49f
8:10pm 9 11 mph 1016.6mb 49f
8:00pm 8 10 mph 1016.6mb 49f
7:50pm 7 9 mph 1016.9mb 49f
7:40pm 5 10 mph 1016.9mb 49f
7:30pm 8 10 mph 1016.9mb 49f
7:20pm 6 9 mph 1017.3mb 49f
7:10pm 8 10 mph 1016.9mb 49f
7:00pm 6 10 mph 1017.3mb 49f
6:50pm 6 9 mph 1017.6mb 49f
6:40pm 6 9 mph 1017.6mb 49f
6:30pm 5 9 mph 1017.6mb 49f
6:20pm 6 7 mph 1017.9mb 49f
6:10pm 3 6 mph 1017.9mb 50f
6:00pm 3 5 mph 1017.9mb 50f
5:50pm 3 7 mph 1017.9mb 50f
5:40pm 5 6 mph 1017.9mb 50f
5:30pm 2 6 mph 1017.9mb 51f
5:20pm 5 6 mph 1018.3mb 51f
5:10pm 5 11 mph 1018.3mb 51f
5:00pm 6 10 mph 1018.3mb 51f
4:50pm 5 10 mph 1018.3mb 51f
4:40pm 7 9 mph 1018.3mb 51f
4:30pm 7 9 mph 1018.6mb 51f
4:20pm 7 13 mph 1018.6mb 51f
4:10pm 8 10 mph 1018.6mb 51f
4:00pm 7 13 mph 1018.6mb 51f
3:50pm 7 14 mph 1018.6mb 51f
3:40pm 8 14 mph 1019mb 51f
3:30pm 7 10 mph 1019mb 52f
3:20pm 5 10 mph 1019mb 51f
3:10pm 9 11 mph 1019.3mb 51f
3:00pm 6 11 mph 1019.3mb 51f
2:50pm 10 14 mph 1019.3mb 51f
2:40pm 7 13 mph 1019.6mb 50f
2:30pm 10 13 mph 1019.6mb 50f
2:20pm 8 14 mph 1019.6mb 50f
2:10pm 8 11 mph 1019.6mb 50f
2:00pm 7 14 mph 1020mb 49f
1:50pm 6 14 mph 1020mb 49f
1:40pm 7 13 mph 1020.3mb 49f
1:30pm 10 15 mph 1020.3mb 49f
1:20pm 8 13 mph 1020.7mb 49f
1:10pm 10 14 mph 1020.7mb 49f
1:00pm 6 17 mph 1021mb 48f
12:50pm 7 15 mph 1021mb 47f
12:40pm 9 15 mph 1021mb 48f
12:30pm 8 11 mph 1021.3mb 47f
12:20pm 6 11 mph 1021.7mb 46f
12:10pm 3 9 mph 1021.7mb 47f
12:00pm 5 13 mph 1021.7mb 46f
11:50am 8 10 mph 1022mb 46f
11:40am 5 15 mph 1022mb 45f
11:30am 3 13 mph 1022.4mb 44f
11:20am 6 10 mph 1022.4mb 45f
11:10am 6 11 mph 1022.4mb 45f
11:00am 5 14 mph 1022.7mb 44f
10:50am 6 13 mph 1022.4mb 43f
10:40am 7 10 mph 1022.7mb 43f
10:30am 7 9 mph 1022.7mb 44f
10:20am 7 9 mph 1022.7mb 43f
10:10am 7 10 mph 1022.7mb 42f
10:00am 2 6 mph 1022.7mb 43f
9:50am 2 7 mph 1022.7mb 42f
9:40am 6 8 mph 1023mb 42f
9:30am 3 9 mph 1022.7mb 41f
9:20am 6 8 mph 1022.7mb 41f
9:10am 5 8 mph 1022.7mb 40f
9:00am 5 7 mph 1022.7mb 39f
8:50am 3 5 mph 1022.4mb 38f
8:40am 3 5 mph 1022.4mb 39f
8:30am 2 7 mph 1022.4mb 38f
8:20am 6 8 mph 1022.7mb 38f
8:10am 5 10 mph 1023mb 37f
8:00am 9 11 mph 1023mb 37f
7:50am 6 10 mph 1023mb 36f
7:40am 8 10 mph 1022.7mb 36f
7:30am 6 9 mph 1022.4mb 36f
7:20am 6 9 mph 1022.4mb 36f
7:10am 6 8 mph 1022mb 35f
7:00am 6 7 mph 1022mb 35f
6:50am 5 7 mph 1022mb 35f
6:40am 5 7 mph 1022mb 35f
6:30am 6 8 mph 1022mb 35f
6:20am 7 9 mph 1022mb 35f
6:10am 6 8 mph 1022mb 35f
6:00am 5 8 mph 1021.7mb 36f
5:50am 6 9 mph 1021.7mb 36f
5:40am 6 9 mph 1022mb 36f
5:30am 6 9 mph 1021.7mb 36f
5:20am 6 9 mph 1021.7mb 36f
5:10am 6 9 mph 1021.7mb 36f
5:00am 6 8 mph 1021.3mb 36f
4:50am 6 9 mph 1021.3mb 37f
4:40am 6 9 mph 1021.3mb 37f
4:30am 7 10 mph 1021.3mb 37f
4:20am 7 9 mph 1021mb 37f
4:10am 6 9 mph 1021.3mb 38f
4:00am 7 8 mph 1021.3mb 38f
3:50am 6 9 mph 1021mb 38f
3:40am 5 9 mph 1021mb 38f
3:30am 7 10 mph 1021mb 38f
3:20am 7 10 mph 1021mb 39f
3:10am 8 9 mph 1020.7mb 39f
3:00am 5 7 mph 1020.7mb 40f
2:50am 5 10 mph 1020.7mb 40f
2:40am 8 11 mph 1020.7mb 41f
2:30am 6 7 mph 1020.7mb 40f
2:20am 3 7 mph 1020.7mb 40f
2:10am 5 7 mph 1020.7mb 41f
2:00am 6 8 mph 1020.7mb 41f
1:50am 6 8 mph 1020.7mb 42f
1:40am 6 9 mph 1020.3mb 42f
1:30am 5 9 mph 1020.3mb 42f
1:20am 5 7 mph 1020.3mb 42f
1:10am 3 9 mph 1020.3mb 42f
1:00am 5 7 mph 1020.3mb 42f
12:50am 6 8 mph 1020.3mb 43f
12:40am 5 10 mph 1020.3mb 43f
12:30am 6 9 mph 1020.3mb 43f
12:20am 6 10 mph 1020.3mb 43f
12:10am 7 13 mph 1020mb 44f
12:00am 7 11 mph 1020mb 44f
Sat 10/18 11:50pm 6 10 mph 1019.6mb 44f
11:40pm 6 9 mph 1019.6mb 44f
11:30pm 3 7 mph 1019.6mb 45f
11:20pm 6 8 mph 1019.6mb 45f
11:10pm 5 10 mph 1019.6mb 45f
11:00pm 5 9 mph 1019.6mb 45f
10:50pm 5 7 mph 1019.6mb 45f
10:40pm 5 6 mph 1019.3mb 45f
10:30pm 3 6 mph 1019.3mb 45f
10:20pm 3 6 mph 1019.3mb 45f
10:10pm 3 6 mph 1019.3mb 45f
10:00pm 3 7 mph 1019.3mb 45f
9:50pm 3 7 mph 1019.3mb 45f
9:40pm 3 8 mph 1019.6mb 45f
9:30pm 5 13 mph 1019.6mb 45f
9:20pm 6 11 mph 1019.6mb 45f
9:10pm 5 10 mph 1019.6mb 45f
9:00pm 3 13 mph 1019.3mb 46f
8:50pm 6 14 mph 1019.3mb 46f
8:40pm 8 15 mph 1019.3mb 46f
8:30pm 8 16 mph 1019.3mb 46f
8:20pm 13 20 mph 1019mb 46f
8:10pm 10 16 mph 1019mb 46f
8:00pm 10 17 mph 1018.6mb 46f
7:50pm 15 20 mph 1019mb 46f
7:40pm 10 16 mph 1018.6mb 47f
7:30pm 10 18 mph 1018.3mb 47f
7:20pm 6 14 mph 1018.3mb 47f
7:10pm 6 15 mph 1018.3mb 47f
7:00pm 6 14 mph 1017.9mb 47f
6:50pm 6 16 mph 1017.9mb 47f
6:40pm 8 15 mph 1017.6mb 47f
6:30pm 7 13 mph 1017.6mb 47f
6:20pm 8 14 mph 1017.3mb 47f
6:10pm 8 13 mph 1017.3mb 47f
6:00pm 6 10 mph 1017.3mb 47f
5:50pm 5 11 mph 1016.9mb 47f
5:40pm 8 15 mph 1016.9mb 47f
5:30pm 9 13 mph 1016.9mb 47f
5:20pm 8 14 mph 1016.6mb 47f
5:10pm 8 16 mph 1016.6mb 47f
5:00pm 14 21 mph 1016.6mb 47f
4:50pm 11 20 mph 1016.6mb 47f
4:40pm 17 20 mph 1016.3mb 47f
4:30pm 9 17 mph 1016.3mb 48f
4:20pm 8 16 mph 1015.9mb 47f
4:10pm 9 15 mph 1015.9mb 47f
4:00pm 8 18 mph 1015.9mb 47f
3:50pm 10 20 mph 1015.6mb 47f
3:40pm 8 14 mph 1015.6mb 47f
3:30pm 7 14 mph 1015.6mb 47f
3:20pm 8 16 mph 1015.2mb 47f
3:10pm 8 22 mph 1015.2mb 47f
3:00pm 10 16 mph 1014.9mb 48f
2:50pm 11 21 mph 1014.9mb 48f
2:40pm 8 21 mph 1014.9mb 48f
2:30pm 10 24 mph 1014.9mb 47f
2:20pm 11 29 mph 1014.9mb 48f
2:10pm 10 20 mph 1014.6mb 48f
2:00pm 10 18 mph 1014.6mb 48f
1:50pm 8 16 mph 1014.6mb 48f
1:40pm 8 20 mph 1014.2mb 47f
1:30pm 10 20 mph 1014.2mb 47f
1:20pm 11 18 mph 1014.2mb 48f
1:10pm 14 24 mph 1014.2mb 49f
1:00pm 9 17 mph 1013.9mb 48f
12:50pm 8 13 mph 1013.9mb 48f
12:40pm 7 15 mph 1013.9mb 49f
12:30pm 10 17 mph 1013.5mb 48f
12:20pm 15 22 mph 1013.5mb 49f
12:10pm 14 21 mph 1013.2mb 49f
12:00pm 7 16 mph 1013.2mb 48f
11:50am 9 16 mph 1013.2mb 48f
11:40am 8 17 mph 1013.2mb 48f
11:30am 7 16 mph 1012.9mb 47f
11:20am 14 21 mph 1012.5mb 47f
11:10am 9 18 mph 1012.5mb 47f
11:00am 13 18 mph 1012.2mb 47f
10:50am 8 18 mph 1012.2mb 49f
10:40am 13 20 mph 1012.2mb 49f
10:30am 16 26 mph 1012.2mb 49f
10:20am 11 28 mph 1011.9mb 48f
10:10am 22 26 mph 1011.9mb 48f
10:00am 14 18 mph 1011.9mb 47f
9:50am 13 20 mph 1011.9mb 47f
9:40am 11 25 mph 1011.5mb 47f
9:30am 11 22 mph 1011.5mb 47f
9:20am 10 20 mph 1011.2mb 46f
9:10am 11 17 mph 1011.2mb 46f
9:00am 11 20 mph 1011.2mb 46f
8:50am 11 20 mph 1010.8mb 46f
8:40am 11 20 mph 1010.8mb 46f
8:30am 10 16 mph 1010.8mb 46f
8:20am 11 17 mph 1010.5mb 46f
8:10am 10 20 mph 1010.2mb 46f
8:00am 10 20 mph 1010.2mb 46f
7:50am 10 15 mph 1009.8mb 46f
7:40am 9 15 mph 1009.8mb 46f
7:30am 7 16 mph 1009.5mb 46f
7:20am 6 15 mph 1009.1mb 46f
7:10am 8 18 mph 1009.1mb 46f
7:00am 11 17 mph 1009.1mb 46f
6:50am 13 18 mph 1008.8mb 46f
6:40am 8 21 mph 1008.8mb 46f
6:30am 14 21 mph 1008.8mb 46f
6:20am 15 22 mph 1008.1mb 46f
6:10am 11 17 mph 1008.1mb 46f
6:00am 7 18 mph 1008.1mb 46f
5:50am 11 20 mph 1008.1mb 46f
5:40am 7 15 mph 1007.8mb 46f
5:30am 13 20 mph 1007.8mb 46f
5:20am 11 22 mph 1007.5mb 46f
5:10am 13 23 mph 1007.5mb 46f
5:00am 14 23 mph 1007.5mb 46f
4:50am 8 18 mph 1007.1mb 47f
4:40am 11 20 mph 1007.1mb 46f
4:30am 13 23 mph 1007.1mb 47f
4:20am 9 16 mph 1006.8mb 47f
4:10am 14 20 mph 1006.8mb 47f
4:00am 13 21 mph 1006.4mb 47f
3:50am 11 20 mph 1006.4mb 47f
3:40am 14 24 mph 1006.4mb 47f
3:30am 9 24 mph 1006.1mb 47f
3:20am 13 21 mph 1006.1mb 47f
3:10am 11 22 mph 1006.1mb 47f
3:00am 13 21 mph 1006.1mb 47f
2:50am 13 22 mph 1005.8mb 47f
2:40am 10 17 mph 1005.8mb 48f
2:30am 11 20 mph 1005.8mb 48f
2:20am 11 25 mph 1005.4mb 48f
2:10am 11 22 mph 1005.4mb 48f
2:00am 17 24 mph 1005.4mb 48f
1:50am 16 22 mph 1005.1mb 48f
1:40am 17 21 mph 1005.1mb 48f
1:30am 11 18 mph 1004.7mb 49f
1:20am 14 23 mph 1004.7mb 49f
1:10am 13 22 mph 1004.7mb 49f
1:00am 10 25 mph 1004.7mb 50f
12:50am 15 25 mph 1004.4mb 50f
12:40am 11 18 mph 1004.4mb 50f
12:30am 14 23 mph 1004.4mb 50f
12:20am 13 23 mph 1004.1mb 51f
12:10am 16 28 mph 1004.1mb 51f
12:00am 21 26 mph 1003.7mb 51f
Fri 10/17 11:50pm 16 23 mph 1003.7mb 52f
11:40pm 15 24 mph 1003.4mb 52f
11:30pm 16 23 mph 1003.4mb 52f
11:20pm 10 17 mph 1003.4mb 53f
11:10pm 9 16 mph 1003.4mb 54f
11:00pm 7 11 mph 1003mb 55f
10:50pm 7 14 mph 1003mb 55f
10:40pm 9 18 mph 1003mb 55f
10:30pm 13 16 mph 1003mb 56f
10:20pm 9 17 mph 1003mb 56f
10:10pm 9 21 mph 1002.7mb 56f
10:00pm 10 22 mph 1003mb 56f
9:50pm 10 20 mph 1002.7mb 56f
9:40pm 13 18 mph 1002.7mb 56f
9:30pm 13 18 mph 1002.7mb 56f
9:20pm 9 21 mph 1002.7mb 56f
9:10pm 13 18 mph 1002.7mb 56f
9:00pm 14 21 mph 1002.7mb 56f
8:50pm 13 20 mph 1002.7mb 57f
8:40pm 11 18 mph 1002.7mb 57f
8:30pm 10 16 mph 1002.7mb 57f
8:20pm 8 18 mph 1002.7mb 58f
8:10pm 10 17 mph 1002.4mb 58f
8:00pm 11 18 mph 1002.4mb 58f
7:50pm 11 24 mph 1002.4mb 58f
7:40pm 13 24 mph 1002.4mb 58f
7:30pm 15 24 mph 1002.4mb 58f
7:20pm 14 24 mph 1002mb 58f
7:10pm 16 29 mph 1002mb 59f
7:00pm 14 26 mph 1002mb 59f
6:50pm 10 23 mph 1002mb 59f
6:40pm 16 22 mph 1001.7mb 59f
6:30pm 16 30 mph 1001.7mb 60f
6:20pm 18 26 mph 1001.7mb 60f
6:10pm 18 24 mph 1001.4mb 60f
6:00pm 15 26 mph 1001.4mb 61f
5:50pm 17 31 mph 1001mb 61f
5:40pm 20 29 mph 1001mb 62f
5:39pm 20 29 mph 1001mb 62f
5:30pm 17 24 mph 1001mb 63f
5:20pm 14 22 mph 1000.3mb 63f
5:10pm 16 24 mph 1000.3mb 63f
5:00pm 17 24 mph 1000.3mb 63f
4:50pm 17 21 mph 1000mb 63f
4:40pm 18 28 mph 1000mb 63f
4:30pm 20 24 mph 1000mb 63f
4:20pm 15 23 mph 1000mb 63f
4:10pm 16 22 mph 999.7mb 64f
4:00pm 13 23 mph 999.7mb 63f
3:50pm 10 17 mph 999.7mb 63f
3:40pm 13 20 mph 999.7mb 63f
3:30pm 9 21 mph 1000mb 63f
3:20pm 11 18 mph 1000mb 62f
3:10pm 9 18 mph 1000mb 62f
3:00pm 9 16 mph 1000mb 62f
2:50pm 11 20 mph 1000mb 62f
2:40pm 14 20 mph 1000mb 62f
2:30pm 17 23 mph 1000mb 62f
2:20pm 15 25 mph 1000mb 61f
2:10pm 14 23 mph 999.7mb 61f
2:00pm 16 22 mph 999.7mb 61f
1:50pm 16 22 mph 999.7mb 60f
1:40pm 14 24 mph 999.7mb 59f
1:30pm 11 20 mph 999.7mb 59f
1:20pm 13 23 mph 999.7mb 58f
1:10pm 13 20 mph 1000mb 59f
1:00pm 13 17 mph 1000mb 58f
12:50pm 13 20 mph 1000.3mb 58f
12:40pm 15 22 mph 1000.3mb 58f
12:30pm 14 18 mph 1000.3mb 58f
12:20pm 13 24 mph 1000.3mb 58f
12:10pm 14 18 mph 1000.7mb 58f
12:00pm 11 17 mph 1000.3mb 58f
11:50am 11 21 mph 1000.7mb 58f
11:40am 13 17 mph 1000.7mb 58f
11:30am 7 16 mph 1000.7mb 58f
11:20am 13 18 mph 1000.7mb 58f
11:10am 13 18 mph 1000.7mb 58f
11:00am 13 18 mph 1000.7mb 58f
10:50am 10 16 mph 1001mb 58f
10:40am 8 16 mph 1001mb 58f
10:30am 11 21 mph 1001mb 58f
10:20am 11 20 mph 1001mb 58f
10:10am 11 17 mph 1001mb 58f
10:00am 10 18 mph 1001.4mb 58f
9:50am 11 21 mph 1001.4mb 58f
9:40am 11 21 mph 1001.4mb 58f
9:30am 16 22 mph 1001.4mb 58f
9:20am 9 21 mph 1001.4mb 58f
9:10am 16 22 mph 1001.4mb 57f
9:00am 11 21 mph 1001.7mb 57f
8:50am 9 21 mph 1002mb 57f
8:40am 10 17 mph 1002mb 57f
8:30am 14 17 mph 1002mb 57f
8:20am 14 17 mph 1002.4mb 57f
8:10am 10 18 mph 1002.4mb 57f
8:00am 10 21 mph 1002.7mb 57f
7:50am 8 20 mph 1002.7mb 57f
7:40am 13 20 mph 1002.7mb 57f
7:30am 11 17 mph 1002.4mb 56f
7:20am 9 15 mph 1002.4mb 56f
7:10am 10 15 mph 1002.4mb 56f
7:00am 10 16 mph 1002.4mb 56f
6:50am 10 16 mph 1002.7mb 56f
6:40am 8 14 mph 1002.7mb 56f
6:30am 8 11 mph 1002.7mb 56f
6:20am 11 16 mph 1002.7mb 56f
6:10am 10 15 mph 1002.7mb 56f
6:00am 8 13 mph 1002.7mb 56f
5:50am 9 15 mph 1003mb 56f
5:40am 8 15 mph 1003mb 56f
5:30am 13 15 mph 1003mb 56f
5:20am 10 16 mph 1003mb 56f
5:10am 9 15 mph 1003mb 56f
5:00am 8 14 mph 1003.4mb 55f
4:50am 7 10 mph 1003.7mb 55f
4:40am 8 15 mph 1003.7mb 55f
4:30am 10 14 mph 1003.7mb 55f
4:20am 8 11 mph 1003.7mb 55f
4:10am 7 9 mph 1003.7mb 55f
4:00am 6 10 mph 1004.1mb 55f
3:50am 8 14 mph 1004.1mb 55f
3:40am 8 14 mph 1004.1mb 56f
3:30am 8 11 mph 1004.1mb 56f
3:20am 9 20 mph 1004.1mb 56f
3:10am 11 16 mph 1004.4mb 56f
3:00am 9 14 mph 1004.4mb 56f
2:50am 8 13 mph 1004.4mb 56f
2:40am 9 15 mph 1004.4mb 56f
2:30am 6 11 mph 1004.7mb 56f
2:20am 9 14 mph 1004.7mb 55f
2:10am 9 14 mph 1004.7mb 55f
2:00am 8 13 mph 1004.7mb 55f
1:50am 8 13 mph 1004.7mb 55f
1:40am 8 11 mph 1005.1mb 55f
1:30am 6 9 mph 1005.1mb 55f
1:20am 6 7 mph 1005.1mb 55f
1:10am 5 7 mph 1005.4mb 55f
1:00am 6 9 mph 1005.4mb 55f
12:50am 7 9 mph 1005.4mb 55f
12:40am 8 14 mph 1005.4mb 56f
12:30am 8 9 mph 1005.4mb 57f
12:20am 7 13 mph 1005.4mb 57f
12:10am 8 15 mph 1005.8mb 57f
12:00am 11 16 mph 1005.4mb 57f
Thu 10/16 11:50pm 8 13 mph 1005.8mb 58f
11:40pm 8 10 mph 1005.8mb 58f
11:30pm 8 14 mph 1005.8mb 58f
11:20pm 9 14 mph 1005.8mb 58f
11:10pm 8 14 mph 1005.8mb 58f
11:00pm 9 13 mph 1005.8mb 58f
10:50pm 7 10 mph 1005.8mb 58f
10:40pm 7 9 mph 1006.1mb 58f
10:30pm 6 8 mph 1006.1mb 58f
10:20pm 6 8 mph 1006.1mb 58f
10:10pm 6 8 mph 1006.1mb 57f
10:00pm 6 9 mph 1006.1mb 57f
9:50pm 6 8 mph 1006.1mb 57f
9:40pm 5 7 mph 1006.1mb 58f
9:30pm 3 5 mph 1006.1mb 58f
9:20pm 5 7 mph 1006.1mb 58f
9:10pm 6 7 mph 1006.4mb 58f
9:00pm 5 8 mph 1006.4mb 59f
8:50pm 7 9 mph 1006.4mb 59f
8:40pm 7 9 mph 1006.8mb 59f
8:30pm 7 8 mph 1006.4mb 59f
8:20pm 5 7 mph 1006.8mb 60f
8:10pm 3 5 mph 1006.4mb 60f
8:00pm 3 5 mph 1006.4mb 60f
7:50pm 1 5 mph 1006.1mb 60f
7:40pm 3 7 mph 1006.4mb 60f
7:30pm 3 5 mph 1006.4mb 60f
7:20pm 2 6 mph 1006.4mb 60f
7:10pm 5 7 mph 1006.4mb 61f
7:00pm 5 7 mph 1006.4mb 61f
6:50pm 5 7 mph 1006.4mb 61f
6:40pm 6 7 mph 1006.4mb 61f
6:30pm 7 8 mph 1006.4mb 61f
6:20pm 6 7 mph 1006.4mb 61f
6:10pm 5 6 mph 1006.4mb 61f
6:00pm 2
mph
1006.4mb 60f
5:50pm 2 5 mph 1006.4mb 61f
5:40pm 2 5 mph 1006.4mb 61f
5:30pm 5 7 mph 1006.4mb 61f
5:20pm 6 9 mph 1006.4mb 61f
5:10pm 7 10 mph 1006.4mb 61f
5:00pm 8 13 mph 1006.4mb 61f
4:50pm 10 15 mph 1006.4mb 61f
4:40pm 9 13 mph 1006.1mb 61f
4:30pm 13 17 mph 1006.1mb 61f
4:20pm 10 15 mph 1006.1mb 61f
4:10pm 11 17 mph 1006.1mb 61f
4:00pm 13 20 mph 1006.1mb 62f
3:50pm 16 20 mph 1006.1mb 63f
3:40pm 13 16 mph 1005.8mb 63f
3:30pm 7 14 mph 1005.8mb 63f
3:20pm 5 8 mph 1005.8mb 60f
3:10pm 5 8 mph 1006.1mb 59f
3:00pm 5 9 mph 1006.1mb 60f
2:50pm 2 7 mph 1005.8mb 61f
2:40pm 7 9 mph 1005.8mb 59f
2:30pm 7 8 mph 1005.8mb 59f
2:20pm 7 9 mph 1005.8mb 60f
2:10pm 8 14 mph 1006.1mb 59f
2:00pm 11 13 mph 1006.1mb 58f
1:50pm 9 10 mph 1006.1mb 58f
1:40pm 7 8 mph 1006.4mb 58f
1:30pm 8
mph
1006.4mb 58f
1:20pm 7 8 mph 1006.4mb 58f
1:10pm 7 9 mph 1006.4mb 58f
1:00pm 8 9 mph 1006.8mb 58f
12:50pm 7 9 mph 1006.8mb 58f
12:40pm 7 9 mph 1006.8mb 58f
12:30pm 8 9 mph 1006.8mb 58f
12:20pm 8 9 mph 1007.1mb 58f
12:10pm 8 9 mph 1007.1mb 58f
12:00pm 9 11 mph 1007.1mb 58f
11:50am 6 7 mph 1007.1mb 61f
11:40am 3 6 mph 1007.5mb 63f
11:30am 5 7 mph 1007.5mb 62f
11:20am 2 7 mph 1007.5mb 62f
11:10am 3 7 mph 1007.5mb 62f
11:00am 3 8 mph 1007.5mb 60f
10:50am 3 7 mph 1007.5mb 62f
10:40am 3 6 mph 1007.5mb 61f
10:30am 3 6 mph 1007.5mb 60f
10:20am 3 7 mph 1007.8mb 60f
10:10am 3 7 mph 1007.8mb 59f
10:00am 1 6 mph 1007.8mb 58f
9:50am 2 7 mph 1008.1mb 57f